Weather History for Fremont, NE

Change the Weather History Date:

Monday, September 19, 2011

  Actual Average Record
Temperature  
Mean Temperature 62 °F -  
Max Temperature 80 °F 79 °F 98 °F (1948)
Min Temperature 44 °F 53 °F 31 °F (1991)
Degree Days  
Heating Degree Days 3    
Growing Degree Days 12 (Base 50)    
Moisture  
Dew Point 45 °F    
Average Humidity 60    
Maximum Humidity 100    
Minimum Humidity 20    
Precipitation  
Precipitation 0.00 in - - ()
Sea Level Pressure  
Sea Level Pressure 30.04 in    
Wind  
Wind Speed 3 mph (SW)    
Max Wind Speed 12 mph    
Max Gust Speed -    
Visibility 10 miles    
Events Fog    
Averages and records for this station are not official NWS values.
T = Trace of Precipitation, MM = Missing Value Source: NWS Daily Summary

Daily Weather History Graph

Daily Weather History Graph

Search for Another Location

Airport:

Trip Planner

Search our weather history database for the weather conditions in past years. The results will help you decide how hot, cold, wet, or windy it might be!

Date:

Astronomy

Sep. 19, 2011 Rise Set
Actual Time 7:10 AM CDT 7:28 PM CDT
Civil Twilight 6:42 AM CDT 7:56 PM CDT
Nautical Twilight 6:09 AM CDT 8:28 PM CDT
Astronomical Twilight 5:36 AM CDT 9:02 PM CDT
Moon 11:32 PM CDT (9/19) 2:06 PM CDT (9/19)
Length of Visible Light 13h 13m
Length of Day
12h 18m
Waning Gibbous, 58% of the Moon is Illuminated
Sep 19
Waning Gibbous
Sep 20
Last Quarter
Sep 27
New
Oct 3
First Quarter
Oct 11
Full

Hourly Weather History & Observations

Time (CDT) Temp. Windchill Dew Point Humidity Pressure Visibility Wind Dir Wind Speed Gust Speed Precip Events Conditions
12:15 AM 50.0 °F - 50.0 °F 100% 30.02 in 0.5 mi Calm Calm - N/A Fog Fog
12:35 AM 50.0 °F - 50.0 °F 100% 30.03 in 0.2 mi Calm Calm - N/A Fog Fog
12:55 AM 50.0 °F - 50.0 °F 100% 30.03 in 10.0 mi West 5.8 mph - N/A   Scattered Clouds
1:15 AM 50.0 °F - 48.2 °F 94% 30.03 in 10.0 mi WNW 4.6 mph - N/A   Clear
1:35 AM 50.0 °F - 48.2 °F 94% 30.03 in 10.0 mi WNW 3.5 mph - N/A   Clear
1:55 AM 50.0 °F - 48.2 °F 94% 30.03 in 10.0 mi Calm Calm - N/A   Clear
2:15 AM 50.0 °F - 46.4 °F 87% 30.04 in 10.0 mi Calm Calm - N/A   Clear
2:55 AM 48.2 °F - 46.4 °F 93% 30.04 in 10.0 mi WNW 3.5 mph - N/A   Clear
3:15 AM 48.2 °F - 46.4 °F 93% 30.04 in 10.0 mi Calm Calm - N/A   Clear
3:55 AM 46.4 °F 45.2 °F 46.4 °F 100% 30.05 in 10.0 mi WNW 3.5 mph - N/A   Clear
4:15 AM 46.4 °F 45.2 °F 46.4 °F 100% 30.05 in 10.0 mi West 3.5 mph - N/A   Clear
4:35 AM 46.4 °F 44.3 °F 44.6 °F 93% 30.06 in 10.0 mi West 4.6 mph - N/A   Clear
4:55 AM 46.4 °F - 46.4 °F 100% 30.05 in 10.0 mi Calm Calm - N/A   Clear
5:15 AM 46.4 °F 43.5 °F 44.6 °F 93% 30.06 in 10.0 mi WNW 5.8 mph - N/A   Clear
5:35 AM 46.4 °F 45.2 °F 44.6 °F 93% 30.07 in 10.0 mi West 3.5 mph - N/A   Clear
5:55 AM 44.6 °F 43.1 °F 44.6 °F 100% 30.07 in 10.0 mi West 3.5 mph - N/A   Clear
6:15 AM 46.4 °F - 44.6 °F 93% 30.07 in 10.0 mi Calm Calm - N/A   Clear
6:35 AM 46.4 °F 44.3 °F 44.6 °F 93% 30.07 in 10.0 mi WNW 4.6 mph - N/A   Clear
6:55 AM 44.6 °F 42.2 °F 44.6 °F 100% 30.08 in 10.0 mi WNW 4.6 mph - N/A   Clear
7:15 AM 44.6 °F 42.2 °F 44.6 °F 100% 30.09 in 10.0 mi WNW 4.6 mph - N/A   Clear
7:35 AM 44.6 °F 42.2 °F 42.8 °F 93% 30.10 in 10.0 mi WNW 4.6 mph - N/A   Clear
7:55 AM 46.4 °F 45.2 °F 44.6 °F 93% 30.10 in 10.0 mi West 3.5 mph - N/A   Clear
8:15 AM 50.0 °F - 46.4 °F 87% 30.11 in 10.0 mi West 4.6 mph - N/A   Clear
9:15 AM 55.4 °F - 50.0 °F 82% 30.11 in 10.0 mi WNW 5.8 mph - N/A   Clear
9:35 AM 57.2 °F - 50.0 °F 77% 30.11 in 10.0 mi WNW 4.6 mph - N/A   Clear
9:55 AM 59.0 °F - 50.0 °F 72% 30.11 in 10.0 mi NW 5.8 mph - N/A   Clear
10:15 AM 60.8 °F - 50.0 °F 68% 30.11 in 10.0 mi NW 3.5 mph - N/A   Clear
10:35 AM 64.4 °F - 51.8 °F 64% 30.12 in 10.0 mi WNW 3.5 mph - N/A   Clear
10:55 AM 68.0 °F - 50.0 °F 52% 30.12 in 10.0 mi Calm Calm - N/A   Clear
11:15 AM 69.8 °F - 46.4 °F 43% 30.12 in 10.0 mi WNW 3.5 mph - N/A   Clear
11:35 AM 71.6 °F - 46.4 °F 41% 30.12 in 10.0 mi Calm Calm - N/A   Clear
11:55 AM 73.4 °F - 46.4 °F 38% 30.11 in 10.0 mi Calm Calm - N/A   Clear
12:15 PM 73.4 °F - 44.6 °F 36% 30.11 in 10.0 mi Calm Calm - N/A   Clear
12:35 PM 77.0 °F - 42.8 °F 29% 30.10 in 10.0 mi Calm Calm - N/A   Clear
12:55 PM 77.0 °F - 41.0 °F 28% 30.10 in 10.0 mi Calm Calm - N/A   Clear
1:15 PM 77.0 °F - 42.8 °F 29% 30.08 in 10.0 mi Calm Calm - N/A   Clear
1:35 PM 78.8 °F - 37.4 °F 23% 30.08 in 10.0 mi SW 3.5 mph - N/A   Clear
1:55 PM 78.8 °F - 37.4 °F 23% 30.07 in 10.0 mi WSW 3.5 mph - N/A   Clear
2:15 PM 78.8 °F - 37.4 °F 23% 30.06 in 10.0 mi SSW 6.9 mph - N/A   Clear
2:35 PM 80.6 °F - 35.6 °F 20% 30.05 in 10.0 mi WSW 8.1 mph - N/A   Clear
2:55 PM 80.6 °F - 35.6 °F 20% 30.04 in 10.0 mi West 5.8 mph - N/A   Clear
3:15 PM 80.6 °F - 35.6 °F 20% 30.03 in 10.0 mi Calm Calm - N/A   Clear
3:35 PM 80.6 °F - 35.6 °F 20% 30.02 in 10.0 mi South 3.5 mph - N/A   Clear
3:55 PM 80.6 °F - 37.4 °F 21% 30.01 in 10.0 mi South 3.5 mph - N/A   Clear
4:15 PM 80.6 °F - 37.4 °F 21% 30.00 in 10.0 mi SSE 8.1 mph - N/A   Clear
4:35 PM 80.6 °F - 41.0 °F 24% 30.00 in 10.0 mi SSE 6.9 mph - N/A   Clear
4:55 PM 80.6 °F - 41.0 °F 24% 29.99 in 10.0 mi SE 6.9 mph - N/A   Clear
5:15 PM 80.6 °F - 39.2 °F 23% 29.98 in 10.0 mi SE 4.6 mph - N/A   Clear
5:35 PM 80.6 °F - 41.0 °F 24% 29.98 in 10.0 mi SSE 5.8 mph - N/A   Clear
5:55 PM 78.8 °F - 42.8 °F 28% 29.98 in 10.0 mi SE 8.1 mph - N/A   Clear
6:15 PM 78.8 °F - 44.6 °F 30% 29.97 in 10.0 mi SE 11.5 mph - N/A   Clear
6:35 PM 77.0 °F - 44.6 °F 32% 29.97 in 10.0 mi SE 8.1 mph - N/A   Clear
6:55 PM 73.4 °F - 46.4 °F 38% 29.96 in 10.0 mi SE 8.1 mph - N/A   Clear
7:15 PM 71.6 °F - 46.4 °F 41% 29.96 in 10.0 mi SE 5.8 mph - N/A   Clear
7:35 PM 68.0 °F - 50.0 °F 52% 29.96 in 10.0 mi SE 6.9 mph - N/A   Clear
7:55 PM 66.2 °F - 50.0 °F 56% 29.96 in 10.0 mi SE 8.1 mph - N/A   Clear
8:15 PM 66.2 °F - 50.0 °F 56% 29.95 in 10.0 mi SE 8.1 mph - N/A   Clear
8:35 PM 66.2 °F - 50.0 °F 56% 29.96 in 10.0 mi SE 9.2 mph - N/A   Clear
8:55 PM 66.2 °F - 46.4 °F 49% 29.95 in 10.0 mi SE 9.2 mph - N/A   Clear
9:15 PM 66.2 °F - 46.4 °F 49% 29.95 in 10.0 mi SE 9.2 mph - N/A   Clear
9:35 PM 66.2 °F - 46.4 °F 49% 29.95 in 10.0 mi SE 9.2 mph - N/A   Clear
9:55 PM 64.4 °F - 46.4 °F 52% 29.95 in 10.0 mi SE 6.9 mph - N/A   Clear
10:15 PM 64.4 °F - 46.4 °F 52% 29.94 in 10.0 mi SSE 10.4 mph - N/A   Clear
10:35 PM 64.4 °F - 46.4 °F 52% 29.94 in 10.0 mi SE 11.5 mph - N/A   Clear
10:55 PM 64.4 °F - 46.4 °F 52% 29.93 in 10.0 mi SE 10.4 mph - N/A   Clear
11:15 PM 62.6 °F - 46.4 °F 55% 29.92 in 10.0 mi SE 9.2 mph - N/A   Clear
11:35 PM 62.6 °F - 46.4 °F 55% 29.92 in 10.0 mi SE 10.4 mph - N/A   Clear
11:55 PM 62.6 °F - 46.4 °F 55% 29.92 in 10.0 mi SE 9.2 mph - N/A   Clear